{"data":{"norad_id":81552,"epoch":"2026-09-14T04:15:40.046112Z","epoch_age_seconds":560678,"freshness":"STALE","line1":"1 81552U          26257.17754683  .00000642  00000+0  14451-2 0  9992","line2":"2 81552  99.0551 151.0263 0257671  76.9093 286.0648 13.18611013615542","mean_motion":13.18611013,"eccentricity":0.0257671,"inclination_deg":99.0551,"raan_deg":151.0263,"arg_perigee_deg":76.9093,"mean_anomaly_deg":286.0648,"bstar":0.0014451,"rev_number":61554,"period_min":109.20582232389,"perigee_km":995.02032159729,"apogee_km":1385.0397553925,"semimajor_km":7568.1670384949,"source":"CELESTRAK","updated_at":"2026-09-20T09:00:32.390782Z"}}